Time,TemperatureF,DewpointF,PressureIn,WindDirection,WindDirectionDegrees,WindSpeedMPH,WindSpeedGustMPH,Humidity,HourlyPrecipIn,Conditions,Clouds,dailyrainin,SoftwareType,DateUTC
2013-01-26 00:03:00,12.9,-21.7,29.99,East,99,2.0,2.0,19,0.00,,,0.00,Wunderground v.1.13,2013-01-26 05:03:00,
2013-01-26 00:12:00,12.6,-20.0,29.98,East,96,1.0,3.0,21,0.00,,,0.00,Wunderground v.1.13,2013-01-26 05:12:00,
2013-01-26 00:17:00,12.6,-20.0,29.98,East,96,1.0,1.0,21,0.00,,,0.00,Wunderground v.1.13,2013-01-26 05:17:00,
2013-01-26 00:22:00,12.4,-18.4,29.98,ESE,107,1.0,1.0,23,0.00,,,0.00,Wunderground v.1.13,2013-01-26 05:22:00,
2013-01-26 00:27:00,12.4,-17.6,29.98,ESE,107,1.0,1.0,24,0.00,,,0.00,Wunderground v.1.13,2013-01-26 05:27:00,
2013-01-26 00:32:00,12.4,-16.8,29.98,ESE,107,1.0,2.0,25,0.00,,,0.00,Wunderground v.1.13,2013-01-26 05:32:00,
2013-01-26 00:37:00,12.3,-17.7,29.98,ESE,103,2.0,2.0,24,0.00,,,0.00,Wunderground v.1.13,2013-01-26 05:37:00,
2013-01-26 00:42:00,12.3,-18.5,29.98,SSE,167,2.0,2.0,23,0.00,,,0.00,Wunderground v.1.13,2013-01-26 05:42:00,
2013-01-26 00:47:00,12.3,-19.4,29.98,ESE,110,2.0,2.0,22,0.00,,,0.00,Wunderground v.1.13,2013-01-26 05:47:00,
2013-01-26 00:52:00,12.3,-19.4,29.97,ESE,110,1.0,1.0,22,0.00,,,0.00,Wunderground v.1.13,2013-01-26 05:52:00,
2013-01-26 00:57:00,12.3,-19.4,29.97,ESE,110,0.0,1.0,22,0.00,,,0.00,Wunderground v.1.13,2013-01-26 05:57:00,
2013-01-26 01:02:00,12.3,-21.2,29.97,ESE,110,1.0,1.0,20,0.00,,,0.00,Wunderground v.1.13,2013-01-26 06:02:00,
2013-01-26 01:07:00,12.1,-22.4,29.97,East,100,2.0,5.0,19,0.00,,,0.00,Wunderground v.1.13,2013-01-26 06:07:00,
2013-01-26 01:12:00,12.1,-26.8,29.97,SE,141,3.0,3.0,15,0.00,,,0.00,Wunderground v.1.13,2013-01-26 06:12:00,
2013-01-26 01:22:00,12.1,-25.6,29.97,SE,138,2.0,2.0,16,0.00,,,0.00,Wunderground v.1.13,2013-01-26 06:22:00,
2013-01-26 01:27:00,11.9,-25.8,29.97,ESE,106,2.0,2.0,16,0.00,,,0.00,Wunderground v.1.13,2013-01-26 06:27:00,
2013-01-26 01:32:00,11.9,-23.6,29.97,ESE,112,2.0,2.0,18,0.00,,,0.00,Wunderground v.1.13,2013-01-26 06:32:00,
2013-01-26 01:37:00,11.7,-23.7,29.97,ESE,112,2.0,2.0,18,0.00,,,0.00,Wunderground v.1.13,2013-01-26 06:37:00,
2013-01-26 01:42:00,11.7,-24.8,29.97,East,82,3.0,3.0,17,0.00,,,0.00,Wunderground v.1.13,2013-01-26 06:42:00,
2013-01-26 01:47:00,11.7,-27.2,29.97,ESE,112,3.0,3.0,15,0.00,,,0.00,Wunderground v.1.13,2013-01-26 06:47:00,
2013-01-26 01:52:00,11.7,-28.4,29.96,ESE,103,3.0,3.0,14,0.00,,,0.00,Wunderground v.1.13,2013-01-26 06:52:00,
2013-01-26 01:57:00,11.7,-28.4,29.96,East,93,3.0,3.0,14,0.00,,,0.00,Wunderground v.1.13,2013-01-26 06:57:00,
2013-01-26 02:03:00,11.6,-28.5,29.96,East,100,2.0,5.0,14,0.00,,,0.00,Wunderground v.1.13,2013-01-26 07:03:00,
2013-01-26 02:07:00,11.6,-29.9,29.96,East,90,2.0,3.0,13,0.00,,,0.00,Wunderground v.1.13,2013-01-26 07:07:00,
2013-01-26 02:12:00,11.6,-29.9,29.96,SE,133,2.0,2.0,13,0.00,,,0.00,Wunderground v.1.13,2013-01-26 07:12:00,
2013-01-26 02:22:00,11.4,-31.5,29.96,ESE,110,4.0,6.0,12,0.00,,,0.00,Wunderground v.1.13,2013-01-26 07:22:00,
2013-01-26 02:27:00,11.4,-31.5,29.96,ESE,113,4.0,4.0,12,0.00,,,0.00,Wunderground v.1.13,2013-01-26 07:27:00,
2013-01-26 02:32:00,11.4,-31.5,29.96,SE,130,3.0,3.0,12,0.00,,,0.00,Wunderground v.1.13,2013-01-26 07:32:00,
2013-01-26 02:37:00,11.4,-31.5,29.95,ESE,107,3.0,3.0,12,0.00,,,0.00,Wunderground v.1.13,2013-01-26 07:37:00,
2013-01-26 02:42:00,11.4,-33.1,29.95,SE,126,2.0,3.0,11,0.00,,,0.00,Wunderground v.1.13,2013-01-26 07:42:00,
2013-01-26 02:52:00,11.2,-33.2,29.95,ENE,72,2.0,4.0,11,0.00,,,0.00,Wunderground v.1.13,2013-01-26 07:52:00,
2013-01-26 02:57:00,11.2,-36.8,29.95,East,95,3.0,3.0,9,0.00,,,0.00,Wunderground v.1.13,2013-01-26 07:57:00,
2013-01-26 03:03:00,11.2,-36.8,29.95,ESE,106,3.0,3.0,9,0.00,,,0.00,Wunderground v.1.13,2013-01-26 08:03:00,
2013-01-26 03:07:00,11.1,-38.9,29.95,ENE,71,2.0,2.0,8,0.00,,,0.00,Wunderground v.1.13,2013-01-26 08:07:00,
2013-01-26 03:12:00,11.1,-41.3,29.95,East,79,2.0,2.0,7,0.00,,,0.00,Wunderground v.1.13,2013-01-26 08:12:00,
2013-01-26 03:17:00,10.9,-41.4,29.95,East,79,1.0,1.0,7,0.00,,,0.00,Wunderground v.1.13,2013-01-26 08:17:00,
2013-01-26 03:22:00,10.9,-41.4,29.95,ENE,73,1.0,1.0,7,0.00,,,0.00,Wunderground v.1.13,2013-01-26 08:22:00,
2013-01-26 03:27:00,10.7,-47.3,29.95,ENE,73,1.0,1.0,5,0.00,,,0.00,Wunderground v.1.13,2013-01-26 08:27:00,
2013-01-26 03:32:00,10.7,-47.3,29.95,ENE,73,1.0,1.0,5,0.00,,,0.00,Wunderground v.1.13,2013-01-26 08:32:00,
2013-01-26 03:37:00,10.7,-47.3,29.95,ENE,73,0.0,0.0,5,0.00,,,0.00,Wunderground v.1.13,2013-01-26 08:37:00,
2013-01-26 03:42:00,10.5,-44.4,29.95,ENE,75,0.0,3.0,6,0.00,,,0.00,Wunderground v.1.13,2013-01-26 08:42:00,
2013-01-26 03:47:00,10.5,-47.4,29.95,ENE,73,1.0,2.0,5,0.00,,,0.00,Wunderground v.1.13,2013-01-26 08:47:00,
2013-01-26 03:52:00,10.5,-51.1,29.94,ENE,73,2.0,2.0,4,0.00,,,0.00,Wunderground v.1.13,2013-01-26 08:52:00,
2013-01-26 03:57:00,10.5,-51.1,29.94,East,86,1.0,2.0,4,0.00,,,0.00,Wunderground v.1.13,2013-01-26 08:57:00,
2013-01-26 04:02:00,10.5,-55.7,29.94,East,88,2.0,2.0,3,0.00,,,0.00,Wunderground v.1.13,2013-01-26 09:02:00,
2013-01-26 04:07:00,10.4,-55.8,29.94,ESE,120,2.0,3.0,3,0.00,,,0.00,Wunderground v.1.13,2013-01-26 09:07:00,
2013-01-26 04:12:00,10.4,-55.8,29.94,ESE,117,2.0,2.0,3,0.00,,,0.00,Wunderground v.1.13,2013-01-26 09:12:00,
2013-01-26 04:17:00,10.2,-62.2,29.94,ESE,106,3.0,3.0,2,0.00,,,0.00,Wunderground v.1.13,2013-01-26 09:17:00,
2013-01-26 04:22:00,10.2,-62.2,29.94,East,89,3.0,3.0,2,0.00,,,0.00,Wunderground v.1.13,2013-01-26 09:22:00,
2013-01-26 04:27:00,10.0,-72.6,29.94,East,95,1.0,3.0,1,0.00,,,0.00,Wunderground v.1.13,2013-01-26 09:27:00,
2013-01-26 04:32:00,10.0,-99.9,29.94,East,100,2.0,2.0,0,0.00,,,0.00,Wunderground v.1.13,2013-01-26 09:32:00,
2013-01-26 04:42:00,10.0,-99.9,29.94,East,97,1.0,1.0,0,0.00,,,0.00,Wunderground v.1.13,2013-01-26 09:42:00,
2013-01-26 04:52:00,9.7,-62.6,29.94,NNE,13,1.0,2.0,2,0.00,,,0.00,Wunderground v.1.13,2013-01-26 09:52:00,
2013-01-26 04:57:00,9.5,-73.0,29.94,NNE,16,1.0,1.0,1,0.00,,,0.00,Wunderground v.1.13,2013-01-26 09:57:00,
2013-01-26 05:03:00,9.5,-62.7,29.94,NNE,16,1.0,1.0,2,0.00,,,0.00,Wunderground v.1.13,2013-01-26 10:03:00,
2013-01-26 05:07:00,9.3,-56.6,29.95,North,3,1.0,1.0,3,0.00,,,0.00,Wunderground v.1.13,2013-01-26 10:07:00,
2013-01-26 05:12:00,9.3,-62.9,29.95,North,4,1.0,1.0,2,0.00,,,0.00,Wunderground v.1.13,2013-01-26 10:12:00,
2013-01-26 05:22:00,9.3,-73.1,29.95,East,92,2.0,6.0,1,0.00,,,0.00,Wunderground v.1.13,2013-01-26 10:22:00,
2013-01-26 05:27:00,9.3,-73.1,29.95,SW,224,2.0,2.0,1,0.00,,,0.00,Wunderground v.1.13,2013-01-26 10:27:00,
2013-01-26 05:32:00,9.3,-62.9,29.95,East,96,1.0,3.0,2,0.00,,,0.00,Wunderground v.1.13,2013-01-26 10:32:00,
2013-01-26 05:37:00,9.3,-62.9,29.95,ESE,120,1.0,1.0,2,0.00,,,0.00,Wunderground v.1.13,2013-01-26 10:37:00,
2013-01-26 05:42:00,9.3,-99.9,29.95,ESE,110,3.0,3.0,0,0.00,,,0.00,Wunderground v.1.13,2013-01-26 10:42:00,
2013-01-26 05:52:00,9.3,-99.9,29.96,NE,38,3.0,3.0,0,0.00,,,0.00,Wunderground v.1.13,2013-01-26 10:52:00,
2013-01-26 06:03:00,9.2,-99.9,29.96,East,95,3.0,3.0,0,0.00,,,0.00,Wunderground v.1.13,2013-01-26 11:03:00,
2013-01-26 06:12:00,9.0,-73.3,29.97,East,90,1.0,1.0,1,0.00,,,0.00,Wunderground v.1.13,2013-01-26 11:12:00,
2013-01-26 06:17:00,9.0,-99.9,29.97,East,90,1.0,1.0,0,0.00,,,0.00,Wunderground v.1.13,2013-01-26 11:17:00,
2013-01-26 06:22:00,8.8,-73.4,29.98,East,90,0.0,0.0,1,0.00,,,0.00,Wunderground v.1.13,2013-01-26 11:22:00,
2013-01-26 06:27:00,8.8,-63.2,29.98,NNE,30,1.0,2.0,2,0.00,,,0.00,Wunderground v.1.13,2013-01-26 11:27:00,
2013-01-26 06:32:00,8.6,-63.3,29.98,NNE,30,1.0,1.0,2,0.00,,,0.00,Wunderground v.1.13,2013-01-26 11:32:00,
2013-01-26 06:37:00,8.4,-57.2,29.98,NNE,30,1.0,1.0,3,0.00,,,0.00,Wunderground v.1.13,2013-01-26 11:37:00,
2013-01-26 06:42:00,8.3,-52.7,29.98,NNE,30,1.0,2.0,4,0.00,,,0.00,Wunderground v.1.13,2013-01-26 11:42:00,
2013-01-26 06:52:00,8.1,-57.4,29.98,WNW,289,1.0,3.0,3,0.00,,,0.00,Wunderground v.1.13,2013-01-26 11:52:00,
2013-01-26 06:57:00,8.1,-52.8,29.98,WNW,301,1.0,1.0,4,0.00,,,0.00,Wunderground v.1.13,2013-01-26 11:57:00,
2013-01-26 07:03:00,8.1,-52.8,29.98,WNW,301,1.0,1.0,4,0.00,,,0.00,Wunderground v.1.13,2013-01-26 12:03:00,
2013-01-26 07:12:00,8.1,-57.4,29.99,East,89,1.0,1.0,3,0.00,,,0.00,Wunderground v.1.13,2013-01-26 12:12:00,
2013-01-26 07:22:00,8.1,-52.8,29.99,ESE,114,1.0,1.0,4,0.00,,,0.00,Wunderground v.1.13,2013-01-26 12:22:00,
2013-01-26 07:27:00,7.9,-53.0,29.99,ESE,116,1.0,1.0,4,0.00,,,0.00,Wunderground v.1.13,2013-01-26 12:27:00,
2013-01-26 07:32:00,7.9,-53.0,29.99,SE,130,1.0,2.0,4,0.00,,,0.00,Wunderground v.1.13,2013-01-26 12:32:00,
2013-01-26 07:37:00,8.3,-63.5,29.99,NNE,14,1.0,2.0,2,0.00,,,0.00,Wunderground v.1.13,2013-01-26 12:37:00,
2013-01-26 07:42:00,8.4,-99.9,29.99,SE,127,2.0,4.0,0,0.00,,,0.00,Wunderground v.1.13,2013-01-26 12:42:00,
2013-01-26 07:47:00,8.8,-99.9,29.99,NNE,23,2.0,2.0,0,0.00,,,0.00,Wunderground v.1.13,2013-01-26 12:47:00,
2013-01-26 07:52:00,9.0,-99.9,30.00,East,88,2.0,2.0,255,0.00,,,0.00,Wunderground v.1.13,2013-01-26 12:52:00,
2013-01-26 07:57:00,9.2,-99.9,30.00,SSE,151,3.0,3.0,0,0.00,,,0.00,Wunderground v.1.13,2013-01-26 12:57:00,
2013-01-26 08:03:00,9.3,-99.9,30.00,NE,41,2.0,2.0,0,0.00,,,0.00,Wunderground v.1.13,2013-01-26 13:03:00,
2013-01-26 08:07:00,9.9,-99.9,30.00,NE,45,1.0,3.0,0,0.00,,,0.00,Wunderground v.1.13,2013-01-26 13:07:00,
2013-01-26 08:12:00,9.9,-99.9,30.00,ESE,109,2.0,2.0,0,0.00,,,0.00,Wunderground v.1.13,2013-01-26 13:12:00,
2013-01-26 08:17:00,10.0,-99.9,30.00,SE,138,3.0,3.0,0,0.00,,,0.00,Wunderground v.1.13,2013-01-26 13:17:00,
2013-01-26 08:22:00,10.0,-99.9,30.00,ESE,107,2.0,3.0,0,0.00,,,0.00,Wunderground v.1.13,2013-01-26 13:22:00,
2013-01-26 08:27:00,10.2,-99.9,30.00,SE,124,2.0,6.0,0,0.00,,,0.00,Wunderground v.1.13,2013-01-26 13:27:00,
2013-01-26 08:32:00,10.4,-99.9,30.00,ENE,65,2.0,3.0,0,0.00,,,0.00,Wunderground v.1.13,2013-01-26 13:32:00,
2013-01-26 08:37:00,10.7,-99.9,30.00,SE,126,2.0,2.0,0,0.00,,,0.00,Wunderground v.1.13,2013-01-26 13:37:00,
2013-01-26 08:42:00,10.9,-99.9,30.00,SE,126,2.0,2.0,0,0.00,,,0.00,Wunderground v.1.13,2013-01-26 13:42:00,
2013-01-26 08:47:00,11.1,-99.9,30.00,SE,131,2.0,2.0,0,0.00,,,0.00,Wunderground v.1.13,2013-01-26 13:47:00,
2013-01-26 08:52:00,11.1,-99.9,30.00,SE,140,3.0,3.0,0,0.00,,,0.00,Wunderground v.1.13,2013-01-26 13:52:00,
2013-01-26 08:57:00,11.1,-99.9,30.00,SE,140,4.0,4.0,0,0.00,,,0.00,Wunderground v.1.13,2013-01-26 13:57:00,
2013-01-26 09:02:00,11.4,-99.9,30.00,ESE,117,4.0,4.0,0,0.00,,,0.00,Wunderground v.1.13,2013-01-26 14:02:00,
2013-01-26 09:07:00,11.9,-99.9,30.01,ESE,117,2.0,3.0,0,0.00,,,0.00,Wunderground v.1.13,2013-01-26 14:07:00,
2013-01-26 09:12:00,12.1,-99.9,30.01,East,88,2.0,6.0,0,0.00,,,0.00,Wunderground v.1.13,2013-01-26 14:12:00,
2013-01-26 09:17:00,12.3,-99.9,30.01,ESE,107,3.0,3.0,0,0.00,,,0.00,Wunderground v.1.13,2013-01-26 14:17:00,
2013-01-26 09:22:00,12.4,12.4,30.01,South,171,4.0,7.0,100,0.00,,,0.00,Wunderground v.1.13,2013-01-26 14:22:00,
2013-01-26 09:27:00,11.9,11.9,30.01,South,178,5.0,5.0,100,0.00,,,0.00,Wunderground v.1.13,2013-01-26 14:27:00,
2013-01-26 09:32:00,12.1,12.1,30.01,SE,134,5.0,5.0,100,0.00,,,0.00,Wunderground v.1.13,2013-01-26 14:32:00,
2013-01-26 09:37:00,12.1,12.1,30.02,SSE,150,5.0,11.0,100,0.00,,,0.00,Wunderground v.1.13,2013-01-26 14:37:00,
2013-01-26 09:42:00,12.3,12.3,30.02,East,100,5.0,8.0,100,0.00,,,0.00,Wunderground v.1.13,2013-01-26 14:42:00,
2013-01-26 09:47:00,12.3,12.3,30.02,ESE,107,6.0,6.0,100,0.00,,,0.00,Wunderground v.1.13,2013-01-26 14:47:00,
2013-01-26 09:52:00,12.4,12.4,30.01,East,89,5.0,6.0,100,0.00,,,0.00,Wunderground v.1.13,2013-01-26 14:52:00,
2013-01-26 09:57:00,12.8,12.8,30.01,East,92,4.0,4.0,100,0.00,,,0.00,Wunderground v.1.13,2013-01-26 14:57:00,
2013-01-26 10:03:00,13.3,13.3,30.01,East,95,3.0,5.0,100,0.00,,,0.00,Wunderground v.1.13,2013-01-26 15:03:00,
2013-01-26 10:12:00,13.5,13.5,30.01,SE,145,5.0,5.0,100,0.00,,,0.00,Wunderground v.1.13,2013-01-26 15:12:00,
2013-01-26 10:17:00,14.1,14.1,30.01,East,97,4.0,10.0,100,0.00,,,0.00,Wunderground v.1.13,2013-01-26 15:17:00,
2013-01-26 10:22:00,13.8,13.8,30.02,ESE,119,6.0,6.0,100,0.00,,,0.00,Wunderground v.1.13,2013-01-26 15:22:00,
2013-01-26 10:27:00,14.0,14.0,30.02,SE,124,6.0,7.0,100,0.00,,,0.00,Wunderground v.1.13,2013-01-26 15:27:00,
2013-01-26 10:32:00,14.1,14.1,30.02,East,88,6.0,6.0,100,0.00,,,0.00,Wunderground v.1.13,2013-01-26 15:32:00,
2013-01-26 10:37:00,14.1,14.1,30.01,East,99,6.0,11.0,100,0.00,,,0.00,Wunderground v.1.13,2013-01-26 15:37:00,
2013-01-26 10:42:00,14.3,14.3,30.01,East,88,6.0,6.0,100,0.00,,,0.00,Wunderground v.1.13,2013-01-26 15:42:00,
2013-01-26 10:47:00,14.6,14.6,30.01,ESE,104,6.0,6.0,100,0.00,,,0.00,Wunderground v.1.13,2013-01-26 15:47:00,
2013-01-26 10:52:00,15.1,15.1,30.00,ESE,113,4.0,4.0,100,0.00,,,0.00,Wunderground v.1.13,2013-01-26 15:52:00,
2013-01-26 10:57:00,15.9,15.9,30.00,SE,140,2.0,2.0,100,0.00,,,0.00,Wunderground v.1.13,2013-01-26 15:57:00,
2013-01-26 11:03:00,16.5,16.5,30.00,SSE,155,3.0,3.0,100,0.00,,,0.00,Wunderground v.1.13,2013-01-26 16:03:00,
2013-01-26 11:07:00,17.2,17.2,29.99,ESE,103,2.0,3.0,100,0.00,,,0.00,Wunderground v.1.13,2013-01-26 16:07:00,
2013-01-26 11:12:00,16.9,16.9,29.99,SE,124,3.0,5.0,100,0.00,,,0.00,Wunderground v.1.13,2013-01-26 16:12:00,
2013-01-26 11:22:00,16.2,16.2,29.99,SE,134,5.0,7.0,100,0.00,,,0.00,Wunderground v.1.13,2013-01-26 16:22:00,
2013-01-26 11:27:00,16.5,16.5,29.99,SE,137,4.0,5.0,100,0.00,,,0.00,Wunderground v.1.13,2013-01-26 16:27:00,
2013-01-26 11:32:00,16.2,16.2,29.99,SE,127,5.0,10.0,100,0.00,,,0.00,Wunderground v.1.13,2013-01-26 16:32:00,
2013-01-26 11:37:00,16.2,16.2,29.99,ESE,121,6.0,6.0,100,0.00,,,0.00,Wunderground v.1.13,2013-01-26 16:37:00,
2013-01-26 11:42:00,16.4,16.4,29.99,ESE,116,4.0,5.0,100,0.00,,,0.00,Wunderground v.1.13,2013-01-26 16:42:00,
2013-01-26 11:47:00,16.5,16.5,29.99,ENE,73,6.0,11.0,100,0.00,,,0.00,Wunderground v.1.13,2013-01-26 16:47:00,
2013-01-26 11:57:00,16.9,16.9,29.99,SE,126,5.0,5.0,100,0.00,,,0.00,Wunderground v.1.13,2013-01-26 16:57:00,
2013-01-26 12:02:00,17.0,17.0,29.99,ESE,103,5.0,8.0,100,0.00,,,0.00,Wunderground v.1.13,2013-01-26 17:02:00,
2013-01-26 12:12:00,16.4,16.4,29.98,ESE,107,8.0,8.0,100,0.00,,,0.00,Wunderground v.1.13,2013-01-26 17:12:00,
2013-01-26 12:17:00,16.4,16.4,29.98,ESE,102,7.0,7.0,100,0.00,,,0.00,Wunderground v.1.13,2013-01-26 17:17:00,
2013-01-26 12:27:00,17.0,17.0,29.98,ESE,119,7.0,7.0,100,0.00,,,0.00,Wunderground v.1.13,2013-01-26 17:27:00,
2013-01-26 12:32:00,17.0,17.0,29.98,ESE,107,8.0,8.0,100,0.00,,,0.00,Wunderground v.1.13,2013-01-26 17:32:00,
2013-01-26 12:37:00,17.2,17.2,29.98,SE,141,8.0,11.0,100,0.00,,,0.00,Wunderground v.1.13,2013-01-26 17:37:00,
2013-01-26 12:42:00,17.7,17.7,29.98,SE,124,7.0,7.0,100,0.00,,,0.00,Wunderground v.1.13,2013-01-26 17:42:00,
2013-01-26 12:47:00,18.0,18.0,29.98,SSE,151,6.0,6.0,100,0.00,,,0.00,Wunderground v.1.13,2013-01-26 17:47:00,
2013-01-26 12:52:00,18.3,18.3,29.98,SE,131,5.0,5.0,100,0.00,,,0.00,Wunderground v.1.13,2013-01-26 17:52:00,
2013-01-26 12:57:00,18.1,18.1,29.98,SE,126,4.0,4.0,100,0.00,,,0.00,Wunderground v.1.13,2013-01-26 17:57:00,
2013-01-26 13:03:00,18.0,18.0,29.98,SSE,161,5.0,5.0,100,0.00,,,0.00,Wunderground v.1.13,2013-01-26 18:03:00,
2013-01-26 13:12:00,18.4,18.4,29.98,South,172,3.0,5.0,100,0.00,,,0.00,Wunderground v.1.13,2013-01-26 18:12:00,
2013-01-26 13:17:00,18.3,18.3,29.98,SSE,158,5.0,7.0,100,0.00,,,0.00,Wunderground v.1.13,2013-01-26 18:17:00,
2013-01-26 13:22:00,18.1,18.1,29.98,SE,136,6.0,6.0,100,0.00,,,0.00,Wunderground v.1.13,2013-01-26 18:22:00,
2013-01-26 13:27:00,18.1,18.1,29.98,SE,137,6.0,6.0,100,0.00,,,0.00,Wunderground v.1.13,2013-01-26 18:27:00,
2013-01-26 13:32:00,18.0,18.0,29.98,South,178,6.0,6.0,100,0.00,,,0.00,Wunderground v.1.13,2013-01-26 18:32:00,
2013-01-26 13:37:00,17.8,17.8,29.98,East,95,7.0,8.0,100,0.00,,,0.00,Wunderground v.1.13,2013-01-26 18:37:00,
2013-01-26 13:42:00,18.1,18.1,29.98,SW,217,6.0,6.0,100,0.00,,,0.00,Wunderground v.1.13,2013-01-26 18:42:00,
2013-01-26 13:47:00,18.6,18.6,29.98,SSE,154,5.0,5.0,100,0.00,,,0.00,Wunderground v.1.13,2013-01-26 18:47:00,
2013-01-26 13:57:00,19.2,19.2,29.98,SE,128,4.0,10.0,100,0.00,,,0.00,Wunderground v.1.13,2013-01-26 18:57:00,
2013-01-26 14:02:00,18.4,18.4,29.98,East,97,7.0,9.0,100,0.00,,,0.00,Wunderground v.1.13,2013-01-26 19:02:00,
2013-01-26 14:07:00,18.6,18.6,29.98,South,174,8.0,8.0,100,0.00,,,0.00,Wunderground v.1.13,2013-01-26 19:07:00,
2013-01-26 14:12:00,18.6,18.6,29.98,SE,134,7.0,7.0,100,0.00,,,0.00,Wunderground v.1.13,2013-01-26 19:12:00,
2013-01-26 14:17:00,18.8,18.8,29.98,SSE,152,6.0,10.0,100,0.00,,,0.00,Wunderground v.1.13,2013-01-26 19:17:00,
2013-01-26 14:22:00,18.9,18.9,29.98,East,96,6.0,6.0,100,0.00,,,0.00,Wunderground v.1.13,2013-01-26 19:22:00,
2013-01-26 14:27:00,18.9,18.9,29.98,East,96,6.0,6.0,100,0.00,,,0.00,Wunderground v.1.13,2013-01-26 19:27:00,
2013-01-26 14:32:00,19.4,19.4,29.98,SE,131,5.0,7.0,100,0.00,,,0.00,Wunderground v.1.13,2013-01-26 19:32:00,
2013-01-26 14:37:00,19.2,19.2,29.99,SE,137,6.0,8.0,100,0.00,,,0.00,Wunderground v.1.13,2013-01-26 19:37:00,
2013-01-26 14:47:00,18.6,18.6,29.99,SSE,154,9.0,9.0,100,0.00,,,0.00,Wunderground v.1.13,2013-01-26 19:47:00,
2013-01-26 14:57:00,18.6,18.6,30.00,East,96,8.0,8.0,100,0.00,,,0.00,Wunderground v.1.13,2013-01-26 19:57:00,
2013-01-26 15:03:00,18.9,18.9,30.00,ENE,69,7.0,7.0,100,0.00,,,0.00,Wunderground v.1.13,2013-01-26 20:03:00,
2013-01-26 15:07:00,19.1,19.1,30.01,East,89,6.0,10.0,100,0.00,,,0.00,Wunderground v.1.13,2013-01-26 20:07:00,
2013-01-26 15:12:00,19.1,19.1,30.01,SSE,152,6.0,12.0,100,0.00,,,0.00,Wunderground v.1.13,2013-01-26 20:12:00,
2013-01-26 15:17:00,18.8,18.8,30.01,South,175,8.0,8.0,100,0.00,,,0.00,Wunderground v.1.13,2013-01-26 20:17:00,
2013-01-26 15:27:00,18.9,18.9,30.02,ESE,121,6.0,7.0,100,0.00,,,0.00,Wunderground v.1.13,2013-01-26 20:27:00,
2013-01-26 15:32:00,18.8,18.8,30.02,East,80,6.0,6.0,100,0.00,,,0.00,Wunderground v.1.13,2013-01-26 20:32:00,
2013-01-26 15:42:00,18.9,18.9,30.02,SE,144,4.0,4.0,100,0.00,,,0.00,Wunderground v.1.13,2013-01-26 20:42:00,
2013-01-26 15:47:00,19.1,19.1,30.02,SE,124,5.0,5.0,100,0.00,,,0.00,Wunderground v.1.13,2013-01-26 20:47:00,
2013-01-26 15:52:00,18.6,18.6,30.02,SE,138,6.0,6.0,100,0.00,,,0.00,Wunderground v.1.13,2013-01-26 20:52:00,
2013-01-26 15:57:00,18.4,18.4,30.02,East,83,6.0,10.0,100,0.00,,,0.00,Wunderground v.1.13,2013-01-26 20:57:00,
2013-01-26 16:03:00,18.0,18.0,30.02,ENE,76,6.0,6.0,100,0.00,,,0.00,Wunderground v.1.13,2013-01-26 21:03:00,
2013-01-26 16:12:00,17.7,17.7,30.02,SE,133,6.0,6.0,100,0.00,,,0.00,Wunderground v.1.13,2013-01-26 21:12:00,
2013-01-26 16:17:00,17.7,17.7,30.02,SSE,150,4.0,4.0,100,0.00,,,0.00,Wunderground v.1.13,2013-01-26 21:17:00,
2013-01-26 16:22:00,17.5,17.5,30.04,East,92,4.0,10.0,100,0.00,,,0.00,Wunderground v.1.13,2013-01-26 21:22:00,
2013-01-26 16:27:00,17.3,17.3,30.04,SSE,158,7.0,14.0,100,0.00,,,0.00,Wunderground v.1.13,2013-01-26 21:27:00,
2013-01-26 16:32:00,17.0,17.0,30.04,ESE,110,8.0,8.0,100,0.00,,,0.00,Wunderground v.1.13,2013-01-26 21:32:00,
2013-01-26 16:37:00,16.9,16.9,30.05,East,95,8.0,8.0,100,0.00,,,0.00,Wunderground v.1.13,2013-01-26 21:37:00,
2013-01-26 16:42:00,16.7,16.7,30.05,SE,138,8.0,13.0,100,0.00,,,0.00,Wunderground v.1.13,2013-01-26 21:42:00,
2013-01-26 16:52:00,16.4,16.4,30.06,East,99,9.0,9.0,100,0.00,,,0.00,Wunderground v.1.13,2013-01-26 21:52:00,
2013-01-26 16:57:00,16.2,16.2,30.06,ESE,113,10.0,10.0,100,0.00,,,0.00,Wunderground v.1.13,2013-01-26 21:57:00,
2013-01-26 17:03:00,16.2,16.2,30.06,East,99,7.0,16.0,100,0.00,,,0.00,Wunderground v.1.13,2013-01-26 22:03:00,
2013-01-26 17:12:00,16.1,16.1,30.06,SE,124,5.0,6.0,100,0.00,,,0.00,Wunderground v.1.13,2013-01-26 22:12:00,
2013-01-26 17:17:00,16.1,16.1,30.06,ESE,116,4.0,6.0,100,0.00,,,0.00,Wunderground v.1.13,2013-01-26 22:17:00,
2013-01-26 17:22:00,15.9,15.9,30.06,ESE,120,4.0,4.0,100,0.00,,,0.00,Wunderground v.1.13,2013-01-26 22:22:00,
2013-01-26 17:27:00,15.9,15.9,30.06,SSW,205,3.0,7.0,100,0.00,,,0.00,Wunderground v.1.13,2013-01-26 22:27:00,
2013-01-26 17:32:00,15.9,15.9,30.06,ESE,121,4.0,4.0,100,0.00,,,0.00,Wunderground v.1.13,2013-01-26 22:32:00,
2013-01-26 17:37:00,15.7,15.7,30.07,ESE,119,5.0,5.0,100,0.00,,,0.00,Wunderground v.1.13,2013-01-26 22:37:00,
2013-01-26 17:42:00,15.6,15.6,30.07,ESE,112,5.0,5.0,100,0.00,,,0.00,Wunderground v.1.13,2013-01-26 22:42:00,
2013-01-26 17:47:00,15.6,15.6,30.07,ESE,114,6.0,6.0,100,0.00,,,0.00,Wunderground v.1.13,2013-01-26 22:47:00,
2013-01-26 17:52:00,15.4,15.4,30.08,East,92,4.0,4.0,100,0.00,,,0.00,Wunderground v.1.13,2013-01-26 22:52:00,
2013-01-26 17:57:00,15.2,15.2,30.08,ESE,117,4.0,6.0,100,0.00,,,0.00,Wunderground v.1.13,2013-01-26 22:57:00,
2013-01-26 18:03:00,15.1,15.1,30.08,SE,143,4.0,4.0,100,0.00,,,0.00,Wunderground v.1.13,2013-01-26 23:03:00,
2013-01-26 18:07:00,15.1,15.1,30.09,SE,143,2.0,2.0,100,0.00,,,0.00,Wunderground v.1.13,2013-01-26 23:07:00,
2013-01-26 18:12:00,14.9,14.9,30.09,WSW,237,1.0,1.0,100,0.00,,,0.00,Wunderground v.1.13,2013-01-26 23:12:00,
2013-01-26 18:17:00,14.8,14.8,30.09,SE,136,1.0,2.0,100,0.00,,,0.00,Wunderground v.1.13,2013-01-26 23:17:00,
2013-01-26 18:22:00,14.6,14.6,30.09,SE,126,2.0,2.0,100,0.00,,,0.00,Wunderground v.1.13,2013-01-26 23:22:00,
2013-01-26 18:27:00,14.6,14.6,30.09,ESE,120,1.0,5.0,100,0.00,,,0.00,Wunderground v.1.13,2013-01-26 23:27:00,
2013-01-26 18:32:00,14.4,14.4,30.09,ESE,119,1.0,1.0,100,0.00,,,0.00,Wunderground v.1.13,2013-01-26 23:32:00,
2013-01-26 18:37:00,14.3,14.3,30.10,ESE,119,1.0,1.0,100,0.00,,,0.00,Wunderground v.1.13,2013-01-26 23:37:00,
2013-01-26 18:42:00,14.1,14.1,30.10,ESE,119,0.0,1.0,100,0.00,,,0.00,Wunderground v.1.13,2013-01-26 23:42:00,
2013-01-26 18:47:00,13.8,13.8,30.10,SE,145,2.0,3.0,100,0.00,,,0.00,Wunderground v.1.13,2013-01-26 23:47:00,
2013-01-26 18:57:00,13.5,13.5,30.10,SSE,157,1.0,1.0,100,0.00,,,0.00,Wunderground v.1.13,2013-01-26 23:57:00,
2013-01-26 19:02:00,13.3,-99.9,30.10,SSE,150,1.0,1.0,255,0.00,,,0.00,Wunderground v.1.13,2013-01-27 00:02:00,
2013-01-26 19:12:00,12.9,12.9,30.10,SE,124,1.0,2.0,100,0.00,,,0.00,Wunderground v.1.13,2013-01-27 00:12:00,
2013-01-26 19:17:00,12.9,12.9,30.10,ESE,117,1.0,2.0,100,0.00,,,0.00,Wunderground v.1.13,2013-01-27 00:17:00,
2013-01-26 19:22:00,12.8,12.8,30.10,SSE,158,3.0,3.0,100,0.00,,,0.00,Wunderground v.1.13,2013-01-27 00:22:00,
2013-01-26 19:27:00,12.9,12.9,30.10,SE,141,5.0,5.0,100,0.00,,,0.00,Wunderground v.1.13,2013-01-27 00:27:00,
2013-01-26 19:32:00,12.8,12.8,30.10,ESE,104,4.0,4.0,100,0.00,,,0.00,Wunderground v.1.13,2013-01-27 00:32:00,
2013-01-26 19:37:00,12.8,12.8,30.09,ESE,119,4.0,4.0,100,0.00,,,0.00,Wunderground v.1.13,2013-01-27 00:37:00,
2013-01-26 19:42:00,13.1,13.1,30.09,East,99,6.0,6.0,100,0.00,,,0.00,Wunderground v.1.13,2013-01-27 00:42:00,
2013-01-26 19:47:00,13.1,13.1,30.09,SE,124,7.0,7.0,100,0.00,,,0.00,Wunderground v.1.13,2013-01-27 00:47:00,
2013-01-26 19:52:00,13.1,13.1,30.10,SSE,151,6.0,6.0,100,0.00,,,0.00,Wunderground v.1.13,2013-01-27 00:52:00,
2013-01-26 19:57:00,13.1,13.1,30.10,SSE,151,6.0,6.0,100,0.00,,,0.00,Wunderground v.1.13,2013-01-27 00:57:00,
2013-01-26 20:03:00,13.1,13.1,30.10,SE,128,8.0,8.0,100,0.00,,,0.00,Wunderground v.1.13,2013-01-27 01:03:00,
2013-01-26 20:12:00,13.3,13.3,30.10,SE,145,8.0,8.0,100,0.00,,,0.00,Wunderground v.1.13,2013-01-27 01:12:00,
2013-01-26 20:17:00,13.1,13.1,30.10,SE,140,6.0,10.0,100,0.00,,,0.00,Wunderground v.1.13,2013-01-27 01:17:00,
2013-01-26 20:22:00,13.1,13.1,30.11,SE,140,4.0,12.0,100,0.00,,,0.00,Wunderground v.1.13,2013-01-27 01:22:00,
2013-01-26 20:27:00,12.9,12.9,30.11,ESE,120,5.0,7.0,100,0.00,,,0.00,Wunderground v.1.13,2013-01-27 01:27:00,
2013-01-26 20:32:00,12.9,12.9,30.11,SE,126,5.0,5.0,100,0.00,,,0.00,Wunderground v.1.13,2013-01-27 01:32:00,
2013-01-26 20:37:00,12.8,12.8,30.11,SE,127,4.0,4.0,100,0.00,,,0.00,Wunderground v.1.13,2013-01-27 01:37:00,
2013-01-26 20:42:00,12.8,12.8,30.11,ESE,123,4.0,7.0,100,0.00,,,0.00,Wunderground v.1.13,2013-01-27 01:42:00,
2013-01-26 20:47:00,12.8,12.8,30.11,SSE,148,5.0,5.0,100,0.00,,,0.00,Wunderground v.1.13,2013-01-27 01:47:00,
2013-01-26 20:52:00,12.8,12.8,30.12,South,184,5.0,5.0,100,0.00,,,0.00,Wunderground v.1.13,2013-01-27 01:52:00,
2013-01-26 20:57:00,12.8,12.8,30.12,ESE,116,5.0,6.0,100,0.00,,,0.00,Wunderground v.1.13,2013-01-27 01:57:00,
2013-01-26 21:03:00,12.8,12.8,30.12,SE,124,4.0,4.0,100,0.00,,,0.00,Wunderground v.1.13,2013-01-27 02:03:00,
2013-01-26 21:07:00,12.6,12.6,30.11,SE,138,3.0,5.0,100,0.00,,,0.00,Wunderground v.1.13,2013-01-27 02:07:00,
2013-01-26 21:12:00,12.6,12.6,30.11,ESE,114,4.0,5.0,100,0.00,,,0.00,Wunderground v.1.13,2013-01-27 02:12:00,
2013-01-26 21:17:00,12.8,12.8,30.11,SSE,158,6.0,6.0,100,0.00,,,0.00,Wunderground v.1.13,2013-01-27 02:17:00,
2013-01-26 21:22:00,12.8,12.8,30.12,SSE,148,5.0,9.0,100,0.00,,,0.00,Wunderground v.1.13,2013-01-27 02:22:00,
2013-01-26 21:27:00,12.8,12.8,30.12,SE,131,3.0,4.0,100,0.00,,,0.00,Wunderground v.1.13,2013-01-27 02:27:00,
2013-01-26 21:32:00,12.8,12.8,30.12,ESE,109,5.0,5.0,100,0.00,,,0.00,Wunderground v.1.13,2013-01-27 02:32:00,
2013-01-26 21:37:00,12.8,12.8,30.12,ESE,116,5.0,7.0,100,0.00,,,0.00,Wunderground v.1.13,2013-01-27 02:37:00,
2013-01-26 21:42:00,12.8,12.8,30.12,SSE,151,4.0,4.0,100,0.00,,,0.00,Wunderground v.1.13,2013-01-27 02:42:00,
2013-01-26 21:47:00,12.6,12.6,30.12,SSE,151,5.0,5.0,100,0.00,,,0.00,Wunderground v.1.13,2013-01-27 02:47:00,
2013-01-26 21:52:00,12.6,12.6,30.12,SE,137,6.0,6.0,100,0.00,,,0.00,Wunderground v.1.13,2013-01-27 02:52:00,
2013-01-26 21:57:00,12.6,12.6,30.12,ESE,107,6.0,6.0,100,0.00,,,0.00,Wunderground v.1.13,2013-01-27 02:57:00,
2013-01-26 22:03:00,12.8,12.8,30.12,SE,126,5.0,6.0,100,0.00,,,0.00,Wunderground v.1.13,2013-01-27 03:03:00,
2013-01-26 22:12:00,12.6,12.6,30.13,SE,145,4.0,5.0,100,0.00,,,0.00,Wunderground v.1.13,2013-01-27 03:12:00,
2013-01-26 22:17:00,12.6,-99.9,30.13,ESE,110,4.0,7.0,0,0.00,,,0.00,Wunderground v.1.13,2013-01-27 03:17:00,
2013-01-26 22:22:00,12.8,12.8,30.13,South,182,5.0,5.0,100,0.00,,,0.00,Wunderground v.1.13,2013-01-27 03:22:00,
2013-01-26 22:32:00,12.6,-99.9,30.13,SSE,165,4.0,4.0,0,0.00,,,0.00,Wunderground v.1.13,2013-01-27 03:32:00,
2013-01-26 22:37:00,12.6,-99.9,30.15,East,96,3.0,3.0,0,0.00,,,0.00,Wunderground v.1.13,2013-01-27 03:37:00,
2013-01-26 22:42:00,12.6,-99.9,30.15,SE,133,3.0,4.0,0,0.00,,,0.00,Wunderground v.1.13,2013-01-27 03:42:00,
2013-01-26 22:47:00,12.8,-99.9,30.15,SSE,151,5.0,8.0,0,0.00,,,0.00,Wunderground v.1.13,2013-01-27 03:47:00,
2013-01-26 22:57:00,12.8,-99.9,30.15,ESE,107,6.0,6.0,0,0.00,,,0.00,Wunderground v.1.13,2013-01-27 03:57:00,
2013-01-26 23:02:00,12.8,-99.9,30.15,SSE,155,6.0,13.0,0,0.00,,,0.00,Wunderground v.1.13,2013-01-27 04:02:00,
2013-01-26 23:07:00,12.8,-99.9,30.15,SE,127,7.0,7.0,0,0.00,,,0.00,Wunderground v.1.13,2013-01-27 04:07:00,
2013-01-26 23:12:00,12.8,-99.9,30.15,SE,138,6.0,7.0,0,0.00,,,0.00,Wunderground v.1.13,2013-01-27 04:12:00,
2013-01-26 23:17:00,12.8,-99.9,30.15,SE,126,6.0,7.0,0,0.00,,,0.00,Wunderground v.1.13,2013-01-27 04:17:00,
2013-01-26 23:22:00,12.8,-99.9,30.14,SE,133,7.0,7.0,0,0.00,,,0.00,Wunderground v.1.13,2013-01-27 04:22:00,
2013-01-26 23:27:00,12.8,-99.9,30.14,SSE,148,6.0,16.0,0,0.00,,,0.00,Wunderground v.1.13,2013-01-27 04:27:00,
2013-01-26 23:32:00,12.8,-99.9,30.14,East,86,6.0,8.0,0,0.00,,,0.00,Wunderground v.1.13,2013-01-27 04:32:00,
2013-01-26 23:37:00,12.9,-99.9,30.15,SSE,160,7.0,7.0,0,0.00,,,0.00,Wunderground v.1.13,2013-01-27 04:37:00,
2013-01-26 23:42:00,12.8,-99.9,30.15,SE,131,6.0,8.0,0,0.00,,,0.00,Wunderground v.1.13,2013-01-27 04:42:00,
2013-01-26 23:47:00,12.8,-99.9,30.15,SSE,147,5.0,5.0,0,0.00,,,0.00,Wunderground v.1.13,2013-01-27 04:47:00,
2013-01-26 23:57:00,12.8,-99.9,30.15,ESE,102,5.0,5.0,0,0.00,,,0.00,Wunderground v.1.13,2013-01-27 04:57:00,